Date String (YYYY-MM-DD hh:mm:ss) UTC,Instrument flags,Ambient pressure (hPa),Sample flow (lpm),Bypass flow (lpm),Sample temperature (°C),Ambient temperature (°C),ASC tube jacket temperature (°C),LED temperature (°C),Box temperature (°C),Sample RH (%),Span deviation,Mass concentration (μg/m³),Mass concentration (μg/m³),Mass concentration (μg/m³)
DateTimeUTC,F1_M11,P_M11,Q1_M11,Q2_M11,T1_M11,T2_M11,T3_M11,T4_M11,T5_M11,U1_M11,ZSPAN_M11,X0_M11,X2_M11,X1_M11
2021-10-13 05:00:00,,0813.9,5.00,0.00,26.4,25.6,00.0,35.6,28.2,18.2,0000.0,0002.35,0000.88,0000.58
2021-10-13 05:01:00,,0813.9,4.99,0.00,26.4,25.6,00.0,35.6,28.2,18.2,0000.0,0002.14,0000.87,0000.58
2021-10-13 05:02:00,,0813.9,4.99,0.00,26.4,25.6,00.0,35.6,28.2,18.2,0000.0,0002.11,0000.86,0000.58
2021-10-13 05:03:00,,0813.6,5.01,0.00,26.4,25.5,00.0,35.6,28.1,18.3,0000.0,0002.09,0000.85,0000.58
2021-10-13 05:04:00,,0813.6,5.00,0.00,26.3,25.5,00.0,35.6,28.0,18.3,0000.0,0002.21,0000.89,0000.59
2021-10-13 05:05:00,,0813.5,5.00,0.00,26.3,25.4,00.0,35.6,28.0,18.3,0000.0,0002.11,0000.89,0000.60
2021-10-13 05:06:00,,0813.5,4.99,0.00,26.2,25.4,00.0,35.6,27.9,18.3,0000.0,0001.96,0000.84,0000.60
2021-10-13 05:07:00,,0813.6,5.01,0.00,26.2,25.3,00.0,35.5,27.9,18.4,0000.0,0001.99,0000.87,0000.62
2021-10-13 05:08:00,,0814.1,5.00,0.00,26.2,25.3,00.0,35.5,27.9,18.4,0000.0,0002.07,0000.90,0000.62
2021-10-13 05:09:00,,0814.2,5.00,0.00,26.2,25.2,00.0,35.5,27.9,18.4,0000.0,0002.11,0000.91,0000.62
2021-10-13 05:10:00,,0813.5,5.02,0.00,26.1,25.1,00.0,35.5,27.9,18.4,0000.0,0002.13,0000.92,0000.63
2021-10-13 05:11:00,,0813.5,4.99,0.00,26.1,25.2,00.0,35.4,27.8,18.4,0000.0,0001.72,0000.94,0000.64
2021-10-13 05:12:00,,0813.5,5.00,0.00,26.1,25.2,00.0,35.4,27.8,18.4,0000.0,0001.74,0000.98,0000.66
2021-10-13 05:13:00,,0813.4,5.00,0.00,26.1,25.1,00.0,35.4,27.8,18.5,0000.0,0001.76,0001.00,0000.67
2021-10-13 05:14:00,,0813.5,4.99,0.00,26.1,25.2,00.0,35.4,27.8,18.5,0000.0,0001.91,0001.06,0000.69
2021-10-13 05:15:00,,0813.5,4.99,0.00,26.1,25.2,00.0,35.4,27.9,18.5,0000.0,0001.92,0001.06,0000.70
2021-10-13 05:16:00,,0813.4,5.00,0.00,26.1,25.2,00.0,35.4,27.9,18.5,0000.0,0001.91,0001.06,0000.70
2021-10-13 05:17:00,,0813.4,5.01,0.00,26.1,25.3,00.0,35.4,27.9,18.5,0000.0,0002.05,0001.08,0000.70
2021-10-13 05:18:00,,0813.4,5.01,0.00,26.1,25.2,00.0,35.3,27.9,18.5,0000.0,0002.16,0001.08,0000.71
2021-10-13 05:19:00,,0813.3,5.00,0.00,26.1,25.2,00.0,35.3,27.9,18.5,0000.0,0002.11,0001.07,0000.72
2021-10-13 05:20:00,,0813.3,5.00,0.00,26.1,25.1,00.0,35.3,27.9,18.6,0000.0,0002.12,0001.08,0000.74
2021-10-13 05:21:00,,0813.2,5.02,0.00,26.1,25.1,00.0,35.3,27.9,18.6,0000.0,0002.16,0001.10,0000.74
2021-10-13 05:22:00,,0813.3,4.99,0.00,26.1,25.2,00.0,35.3,27.9,18.6,0000.0,0002.06,0001.10,0000.74
2021-10-13 05:23:00,,0813.3,5.01,0.00,26.1,25.2,00.0,35.3,27.9,18.5,0000.0,0002.27,0001.11,0000.74
2021-10-13 05:24:00,,0813.3,4.99,0.00,26.1,25.3,00.0,35.3,27.9,18.5,0000.0,0002.51,0001.13,0000.74
2021-10-13 05:25:00,,0813.3,5.00,0.00,26.2,25.3,00.0,35.3,28.0,18.4,0000.0,0002.45,0001.11,0000.73
2021-10-13 05:26:00,,0813.3,5.03,0.00,26.2,25.4,00.0,35.3,28.0,18.4,0000.0,0002.42,0001.12,0000.73
2021-10-13 05:27:00,,0813.3,4.99,0.00,26.2,25.3,00.0,35.3,28.0,18.4,0000.0,0002.43,0001.13,0000.74
2021-10-13 05:28:00,,0813.3,5.01,0.00,26.2,25.3,00.0,35.3,28.0,18.4,0000.0,0002.43,0001.16,0000.75
2021-10-13 05:29:00,,0813.3,5.00,0.00,26.2,25.3,00.0,35.3,28.0,18.4,0000.0,0002.53,0001.19,0000.75
2021-10-13 05:30:00,,0813.3,5.00,0.00,26.2,25.4,00.0,35.3,28.0,18.4,0000.0,0002.58,0001.21,0000.76
2021-10-13 05:31:00,,0813.2,5.00,0.00,26.2,25.4,00.0,35.3,28.0,18.4,0000.0,0002.57,0001.21,0000.75
2021-10-13 05:32:00,,0813.1,5.00,0.00,26.2,25.4,00.0,35.3,28.0,18.4,0000.0,0002.66,0001.25,0000.76
2021-10-13 05:33:00,,0813.2,5.00,0.00,26.2,25.4,00.0,35.3,28.0,18.4,0000.0,0002.67,0001.25,0000.76
2021-10-13 05:34:00,,0813.2,5.00,0.00,26.2,25.3,00.0,35.3,28.0,18.4,0000.0,0002.65,0001.26,0000.77
2021-10-13 05:35:00,,0813.2,5.00,0.00,26.2,25.3,00.0,35.3,28.0,18.4,0000.0,0002.30,0001.24,0000.78
2021-10-13 05:36:00,,0813.2,5.00,0.00,26.2,25.3,00.0,35.3,28.0,18.4,0000.0,0002.24,0001.23,0000.79
2021-10-13 05:37:00,,0813.1,5.00,0.00,26.2,25.4,00.0,35.3,28.0,18.4,0000.0,0002.15,0001.19,0000.79
2021-10-13 05:38:00,,0813.1,4.99,0.00,26.2,25.4,00.0,35.3,28.0,18.4,0000.0,0002.14,0001.19,0000.79
2021-10-13 05:39:00,,0813.1,5.00,0.00,26.2,25.4,00.0,35.3,28.0,18.4,0000.0,0002.13,0001.18,0000.79
2021-10-13 05:40:00,,0813.1,5.00,0.00,26.2,25.4,00.0,35.3,28.1,18.4,0000.0,0001.99,0001.17,0000.80
2021-10-13 05:41:00,,0813.1,5.00,0.00,26.2,25.3,00.0,35.3,28.0,18.4,0000.0,0001.87,0001.16,0000.81
2021-10-13 05:42:00,,0813.0,5.01,0.00,26.2,25.3,00.0,35.3,28.0,18.4,0000.0,0001.85,0001.14,0000.82
2021-10-13 05:43:00,,0813.0,5.00,0.00,26.2,25.3,00.0,35.3,28.0,18.4,0000.0,0001.89,0001.12,0000.82
2021-10-13 05:44:00,,0813.0,5.00,0.00,26.2,25.4,00.0,35.3,28.0,18.5,0000.0,0001.87,0001.12,0000.82
2021-10-13 05:45:00,,0813.0,5.00,0.00,26.2,25.4,00.0,35.3,28.0,18.5,0000.0,0001.86,0001.10,0000.81
2021-10-13 05:46:00,,0813.0,5.00,0.00,26.2,25.4,00.0,35.3,28.0,18.5,0000.0,0001.75,0001.06,0000.81
2021-10-13 05:47:00,,0813.1,4.98,0.00,26.3,25.4,00.0,35.3,28.1,18.5,0000.0,0001.74,0001.05,0000.81
2021-10-13 05:48:00,,0812.9,5.00,0.00,26.2,25.4,00.0,35.3,28.1,18.4,0000.0,0001.75,0001.05,0000.82
2021-10-13 05:49:00,,0812.9,5.01,0.00,26.2,25.3,00.0,35.3,28.0,18.4,0000.0,0001.82,0001.08,0000.83
2021-10-13 05:50:00,,0812.9,4.99,0.00,26.2,25.3,00.0,35.3,28.0,18.4,0000.0,0001.93,0001.12,0000.83
2021-10-13 05:51:00,,0813.1,5.00,0.00,26.2,25.3,00.0,35.3,28.0,18.3,0000.0,0002.02,0001.15,0000.83
2021-10-13 05:52:00,,0813.0,4.99,0.00,26.2,25.3,00.0,35.3,27.9,18.3,0000.0,0002.15,0001.16,0000.83
2021-10-13 05:53:00,,0813.0,4.99,0.00,26.1,25.3,00.0,35.3,27.9,18.3,0000.0,0002.36,0001.18,0000.83
2021-10-13 05:54:00,,0812.9,5.01,0.00,26.1,25.3,00.0,35.3,27.9,18.4,0000.0,0002.35,0001.20,0000.84
2021-10-13 05:55:00,,0812.8,5.00,0.00,26.1,25.3,00.0,35.3,27.9,18.3,0000.0,0002.31,0001.20,0000.84
2021-10-13 05:56:00,,0812.8,5.01,0.00,26.1,25.3,00.0,35.3,27.9,18.3,0000.0,0002.32,0001.24,0000.86
2021-10-13 05:57:00,,0812.8,4.99,0.00,26.1,25.3,00.0,35.3,27.9,18.4,0000.0,0002.43,0001.29,0000.88
2021-10-13 05:58:00,,0812.8,4.99,0.00,26.1,25.2,00.0,35.2,27.9,18.5,0000.0,0002.53,0001.35,0000.89
2021-10-13 05:59:00,,0812.9,5.00,0.00,26.1,25.2,00.0,35.2,27.9,18.6,0000.0,0002.59,0001.37,0000.90
